Time,TemperatureF,DewpointF,PressureIn,WindDirection,WindDirectionDegrees,WindSpeedMPH,WindSpeedGustMPH,Humidity,HourlyPrecipIn,Conditions,Clouds,dailyrainin,SoftwareType,DateUTC
2013-10-18 00:04:00,66.0,64.6,29.94,WNW,297,0.0,6.0,95,0.00,,,0.01,meteohub,2013-10-18 05:04:00,
2013-10-18 00:09:00,66.0,64.6,29.94,WNW,297,0.0,2.0,95,0.00,,,0.01,meteohub,2013-10-18 05:09:00,
2013-10-18 00:14:00,66.0,64.6,29.94,West,265,0.0,2.0,95,0.00,,,0.01,meteohub,2013-10-18 05:14:00,
2013-10-18 00:19:00,66.0,64.6,29.94,West,276,0.0,2.0,95,0.00,,,0.01,meteohub,2013-10-18 05:19:00,
2013-10-18 00:24:00,66.0,64.6,29.94,West,276,0.0,2.0,95,0.00,,,0.01,meteohub,2013-10-18 05:24:00,
2013-10-18 00:29:00,65.8,64.4,29.94,WNW,283,1.0,2.0,95,0.00,,,0.01,meteohub,2013-10-18 05:29:00,
2013-10-18 00:34:00,65.8,64.4,29.94,West,262,0.0,3.0,95,0.00,,,0.01,meteohub,2013-10-18 05:34:00,
2013-10-18 00:39:00,65.8,64.4,29.94,NW,314,0.0,4.0,95,0.00,,,0.01,meteohub,2013-10-18 05:39:00,
2013-10-18 00:45:00,65.7,64.2,29.94,NW,312,0.0,4.0,95,0.00,,,0.01,meteohub,2013-10-18 05:45:00,
2013-10-18 00:50:00,65.7,64.2,29.94,NW,314,0.0,4.0,95,0.00,,,0.01,meteohub,2013-10-18 05:50:00,
2013-10-18 00:55:00,65.7,64.2,29.94,NW,311,0.0,3.0,95,0.00,,,0.01,meteohub,2013-10-18 05:55:00,
2013-10-18 01:00:00,65.7,64.2,29.94,WSW,244,0.0,2.0,95,0.00,,,0.01,meteohub,2013-10-18 06:00:00,
2013-10-18 01:05:00,65.7,64.2,29.94,WSW,244,0.0,2.0,95,0.00,,,0.01,meteohub,2013-10-18 06:05:00,
2013-10-18 01:10:00,65.7,64.2,29.95,WNW,291,0.0,2.0,95,0.00,,,0.01,meteohub,2013-10-18 06:10:00,
2013-10-18 01:15:00,65.7,64.2,29.95,West,270,0.0,3.0,95,0.00,,,0.01,meteohub,2013-10-18 06:15:00,
2013-10-18 01:20:00,65.7,64.2,29.95,West,270,0.0,3.0,95,0.00,,,0.01,meteohub,2013-10-18 06:20:00,
2013-10-18 01:25:00,65.7,64.2,29.95,WNW,289,0.0,3.0,95,0.00,,,0.01,meteohub,2013-10-18 06:25:00,
2013-10-18 01:31:00,65.7,64.2,29.95,WNW,289,0.0,2.0,95,0.00,,,0.01,meteohub,2013-10-18 06:31:00,
2013-10-18 01:36:00,65.7,64.2,29.95,WNW,292,0.0,2.0,95,0.00,,,0.01,meteohub,2013-10-18 06:36:00,
2013-10-18 01:41:00,65.7,64.2,29.95,WNW,292,0.0,1.0,95,0.00,,,0.01,meteohub,2013-10-18 06:41:00,
2013-10-18 01:46:00,65.7,64.2,29.95,WNW,292,0.0,1.0,95,0.00,,,0.01,meteohub,2013-10-18 06:46:00,
2013-10-18 01:51:00,65.7,64.2,29.95,WNW,292,0.0,1.0,95,0.00,,,0.01,meteohub,2013-10-18 06:51:00,
2013-10-18 01:56:00,65.5,64.0,29.95,WNW,292,0.0,2.0,95,0.00,,,0.01,meteohub,2013-10-18 06:56:00,
2013-10-18 02:01:00,65.5,64.0,29.95,WNW,292,0.0,2.0,95,0.00,,,0.01,meteohub,2013-10-18 07:01:00,
2013-10-18 02:06:00,65.5,64.0,29.95,WNW,283,0.0,4.0,95,0.00,,,0.01,meteohub,2013-10-18 07:06:00,
2013-10-18 02:12:00,65.5,64.0,29.95,West,264,0.0,4.0,95,0.00,,,0.01,meteohub,2013-10-18 07:12:00,
2013-10-18 02:17:00,65.3,63.9,29.95,SE,125,0.0,4.0,95,0.00,,,0.01,meteohub,2013-10-18 07:17:00,
2013-10-18 02:22:00,65.3,63.9,29.95,ENE,61,0.0,2.0,95,0.00,,,0.01,meteohub,2013-10-18 07:22:00,
2013-10-18 02:27:00,65.1,63.7,29.95,NE,49,0.0,2.0,95,0.00,,,0.01,meteohub,2013-10-18 07:27:00,
2013-10-18 02:32:00,65.1,63.7,29.95,WNW,285,2.0,2.0,95,0.00,,,0.01,meteohub,2013-10-18 07:32:00,
2013-10-18 02:37:00,65.1,63.7,29.96,WNW,293,0.0,4.0,95,0.00,,,0.01,meteohub,2013-10-18 07:37:00,
2013-10-18 02:42:00,65.1,63.7,29.96,WNW,293,0.0,4.0,95,0.00,,,0.01,meteohub,2013-10-18 07:42:00,
2013-10-18 02:47:00,65.1,63.7,29.96,WNW,291,0.0,4.0,95,0.00,,,0.01,meteohub,2013-10-18 07:47:00,
2013-10-18 02:52:00,65.1,63.7,29.95,WNW,291,1.0,2.0,95,0.00,,,0.01,meteohub,2013-10-18 07:52:00,
2013-10-18 02:57:00,65.1,63.7,29.95,WNW,291,1.0,2.0,95,0.00,,,0.01,meteohub,2013-10-18 07:57:00,
2013-10-18 03:02:00,64.9,63.5,29.95,NNE,29,0.0,2.0,95,0.00,,,0.01,meteohub,2013-10-18 08:02:00,
2013-10-18 03:07:00,64.9,63.5,29.95,WSW,239,0.0,3.0,95,0.00,,,0.01,meteohub,2013-10-18 08:07:00,
2013-10-18 03:12:00,64.9,63.5,29.95,WSW,241,0.0,3.0,95,0.00,,,0.01,meteohub,2013-10-18 08:12:00,
2013-10-18 03:18:00,64.9,63.5,29.95,West,275,0.0,2.0,95,0.00,,,0.01,meteohub,2013-10-18 08:18:00,
2013-10-18 03:23:00,64.9,63.5,29.95,West,275,0.0,2.0,95,0.00,,,0.01,meteohub,2013-10-18 08:23:00,
2013-10-18 03:28:00,64.8,63.3,29.95,WNW,289,0.0,2.0,95,0.00,,,0.01,meteohub,2013-10-18 08:28:00,
2013-10-18 03:33:00,64.8,63.3,29.95,WNW,289,1.0,2.0,95,0.00,,,0.01,meteohub,2013-10-18 08:33:00,
2013-10-18 03:38:00,64.8,63.3,29.95,West,278,0.0,2.0,95,0.00,,,0.01,meteohub,2013-10-18 08:38:00,
2013-10-18 03:43:00,64.8,63.3,29.95,SSW,200,1.0,3.0,95,0.00,,,0.01,meteohub,2013-10-18 08:43:00,
2013-10-18 03:48:00,64.8,63.3,29.95,SSW,200,0.0,3.0,95,0.00,,,0.01,meteohub,2013-10-18 08:48:00,
2013-10-18 03:53:00,64.8,63.3,29.95,NW,312,0.0,2.0,95,0.00,,,0.01,meteohub,2013-10-18 08:53:00,
2013-10-18 03:59:00,64.8,63.3,29.95,NW,312,0.0,2.0,95,0.00,,,0.01,meteohub,2013-10-18 08:59:00,
2013-10-18 04:04:00,64.8,63.3,29.95,West,262,0.0,2.0,95,0.00,,,0.01,meteohub,2013-10-18 09:04:00,
2013-10-18 04:09:00,64.8,63.0,29.95,WSW,256,1.0,3.0,94,0.00,,,0.01,meteohub,2013-10-18 09:09:00,
2013-10-18 04:14:00,64.6,62.8,29.95,NNW,341,0.0,3.0,94,0.00,,,0.01,meteohub,2013-10-18 09:14:00,
2013-10-18 04:19:00,64.6,62.8,29.96,WNW,299,0.0,3.0,94,0.00,,,0.01,meteohub,2013-10-18 09:19:00,
2013-10-18 04:24:00,64.6,62.8,29.96,WNW,298,1.0,2.0,94,0.00,,,0.01,meteohub,2013-10-18 09:24:00,
2013-10-18 04:29:00,64.6,62.8,29.96,WSW,258,0.0,2.0,94,0.00,,,0.01,meteohub,2013-10-18 09:29:00,
2013-10-18 04:34:00,64.6,62.8,29.96,WSW,258,0.0,2.0,94,0.00,,,0.01,meteohub,2013-10-18 09:34:00,
2013-10-18 04:39:00,64.6,62.8,29.96,WNW,286,0.0,2.0,94,0.00,,,0.01,meteohub,2013-10-18 09:39:00,
2013-10-18 04:45:00,64.6,62.8,29.96,WNW,287,0.0,3.0,94,0.00,,,0.01,meteohub,2013-10-18 09:45:00,
2013-10-18 04:50:00,64.6,62.8,29.96,WNW,287,0.0,3.0,94,0.00,,,0.01,meteohub,2013-10-18 09:50:00,
2013-10-18 04:55:00,64.6,62.8,29.96,ENE,70,0.0,3.0,94,0.00,,,0.01,meteohub,2013-10-18 09:55:00,
2013-10-18 05:00:00,64.6,62.8,29.96,ENE,70,0.0,1.0,94,0.00,,,0.01,meteohub,2013-10-18 10:00:00,
2013-10-18 05:05:00,64.6,62.8,29.96,ENE,70,0.0,1.0,94,0.00,,,0.01,meteohub,2013-10-18 10:05:00,
2013-10-18 05:10:00,64.6,62.8,29.96,WSW,247,0.0,1.0,94,0.00,,,0.01,meteohub,2013-10-18 10:10:00,
2013-10-18 05:15:00,64.6,62.8,29.96,West,273,0.0,2.0,94,0.00,,,0.01,meteohub,2013-10-18 10:15:00,
2013-10-18 05:20:00,64.6,62.8,29.96,West,273,0.0,2.0,94,0.00,,,0.01,meteohub,2013-10-18 10:20:00,
2013-10-18 05:25:00,64.6,62.8,29.96,West,273,0.0,2.0,94,0.00,,,0.01,meteohub,2013-10-18 10:25:00,
2013-10-18 05:31:00,64.6,62.8,29.96,West,273,0.0,2.0,94,0.00,,,0.01,meteohub,2013-10-18 10:31:00,
2013-10-18 05:36:00,64.6,62.8,29.96,West,273,0.0,2.0,94,0.00,,,0.01,meteohub,2013-10-18 10:36:00,
2013-10-18 05:41:00,64.6,62.8,29.96,West,272,0.0,1.0,94,0.00,,,0.01,meteohub,2013-10-18 10:41:00,
2013-10-18 05:46:00,64.6,62.8,29.96,NNE,31,0.0,1.0,94,0.00,,,0.01,meteohub,2013-10-18 10:46:00,
2013-10-18 05:51:00,64.6,62.8,29.96,NNW,336,0.0,4.0,94,0.00,,,0.01,meteohub,2013-10-18 10:51:00,
2013-10-18 05:56:00,64.6,62.8,29.96,NNW,332,0.0,4.0,94,0.00,,,0.01,meteohub,2013-10-18 10:56:00,
2013-10-18 06:01:00,64.6,62.8,29.96,NE,51,0.0,4.0,94,0.00,,,0.01,meteohub,2013-10-18 11:01:00,
2013-10-18 06:06:00,64.6,62.8,29.96,NE,50,0.0,3.0,94,0.00,,,0.01,meteohub,2013-10-18 11:06:00,
2013-10-18 06:11:00,64.6,62.8,29.96,NE,37,2.0,3.0,94,0.00,,,0.01,meteohub,2013-10-18 11:11:00,
2013-10-18 06:17:00,64.6,62.8,29.96,East,84,2.0,3.0,94,0.00,,,0.01,meteohub,2013-10-18 11:17:00,
2013-10-18 06:22:00,64.4,62.6,29.96,East,84,0.0,3.0,94,0.00,,,0.01,meteohub,2013-10-18 11:22:00,
2013-10-18 06:27:00,64.6,62.8,29.96,NE,43,1.0,3.0,94,0.00,,,0.01,meteohub,2013-10-18 11:27:00,
2013-10-18 06:32:00,64.6,62.8,29.96,ENE,65,0.0,3.0,94,0.00,,,0.01,meteohub,2013-10-18 11:32:00,
2013-10-18 06:37:00,64.6,62.8,29.97,NW,325,0.0,3.0,94,0.00,,,0.01,meteohub,2013-10-18 11:37:00,
2013-10-18 06:42:00,64.4,62.6,29.97,NW,325,0.0,3.0,94,0.00,,,0.01,meteohub,2013-10-18 11:42:00,
2013-10-18 06:47:00,64.4,62.6,29.98,NW,325,0.0,2.0,94,0.00,,,0.01,meteohub,2013-10-18 11:47:00,
2013-10-18 06:52:00,64.2,62.8,29.98,NW,325,0.0,2.0,95,0.00,,,0.01,meteohub,2013-10-18 11:52:00,
2013-10-18 06:57:00,64.4,63.0,29.98,ENE,62,1.0,2.0,95,0.00,,,0.01,meteohub,2013-10-18 11:57:00,
2013-10-18 07:02:00,64.4,62.6,29.98,ENE,64,0.0,2.0,94,0.00,,,0.01,meteohub,2013-10-18 12:02:00,
2013-10-18 07:07:00,64.6,62.8,29.97,ENE,77,2.0,2.0,94,0.00,,,0.01,meteohub,2013-10-18 12:07:00,
2013-10-18 07:12:00,64.6,62.8,29.97,East,85,0.0,3.0,94,0.00,,,0.01,meteohub,2013-10-18 12:12:00,
2013-10-18 07:17:00,64.6,62.8,29.98,South,187,0.0,3.0,94,0.00,,,0.01,meteohub,2013-10-18 12:17:00,
2013-10-18 07:22:00,64.6,62.8,29.98,ENE,68,0.0,3.0,94,0.00,,,0.01,meteohub,2013-10-18 12:22:00,
2013-10-18 07:27:00,64.6,62.8,29.99,WSW,257,0.0,3.0,94,0.00,,,0.01,meteohub,2013-10-18 12:27:00,
2013-10-18 07:32:00,64.6,62.8,29.99,WSW,257,0.0,2.0,94,0.00,,,0.01,meteohub,2013-10-18 12:32:00,
2013-10-18 07:37:00,64.6,62.8,29.99,WSW,257,0.0,2.0,94,0.00,,,0.01,meteohub,2013-10-18 12:37:00,
2013-10-18 07:42:00,64.6,62.8,29.99,WNW,298,0.0,1.0,94,0.00,,,0.01,meteohub,2013-10-18 12:42:00,
2013-10-18 07:47:00,64.6,62.8,29.99,NNW,335,0.0,2.0,94,0.00,,,0.01,meteohub,2013-10-18 12:47:00,
2013-10-18 07:52:00,64.8,63.0,30.00,NW,310,1.0,2.0,94,0.00,,,0.01,meteohub,2013-10-18 12:52:00,
2013-10-18 07:57:00,64.8,63.0,30.00,North,8,0.0,3.0,94,0.00,,,0.01,meteohub,2013-10-18 12:57:00,
2013-10-18 08:02:00,64.8,63.0,30.00,NNE,18,1.0,3.0,94,0.00,,,0.01,meteohub,2013-10-18 13:02:00,
2013-10-18 08:07:00,64.9,63.1,30.00,NNE,18,0.0,3.0,94,0.00,,,0.01,meteohub,2013-10-18 13:07:00,
2013-10-18 08:12:00,64.9,63.1,30.00,NNE,18,0.0,3.0,94,0.00,,,0.01,meteohub,2013-10-18 13:12:00,
2013-10-18 08:17:00,65.1,63.3,30.00,NNE,18,0.0,3.0,94,0.00,,,0.01,meteohub,2013-10-18 13:17:00,
2013-10-18 08:22:00,65.1,63.0,30.01,NNE,18,1.0,1.0,93,0.00,,,0.01,meteohub,2013-10-18 13:22:00,
2013-10-18 08:27:00,65.1,63.3,30.01,NNE,18,0.0,2.0,94,0.00,,,0.01,meteohub,2013-10-18 13:27:00,
2013-10-18 08:32:00,65.5,63.7,30.01,NNE,32,1.0,2.0,94,0.00,,,0.01,meteohub,2013-10-18 13:32:00,
2013-10-18 08:37:00,65.7,63.5,30.01,WNW,285,0.0,3.0,93,0.00,,,0.01,meteohub,2013-10-18 13:37:00,
2013-10-18 08:42:00,65.8,63.7,30.01,WNW,285,0.0,3.0,93,0.00,,,0.01,meteohub,2013-10-18 13:42:00,
2013-10-18 08:47:00,66.4,64.0,30.02,SSE,153,0.0,3.0,92,0.00,,,0.01,meteohub,2013-10-18 13:47:00,
2013-10-18 08:52:00,66.6,64.2,30.01,SW,224,0.0,2.0,92,0.00,,,0.01,meteohub,2013-10-18 13:52:00,
2013-10-18 08:58:00,66.7,64.0,30.02,SW,223,0.0,2.0,91,0.00,,,0.01,meteohub,2013-10-18 13:58:00,
2013-10-18 09:03:00,66.9,64.2,30.02,NW,316,0.0,2.0,91,0.00,,,0.01,meteohub,2013-10-18 14:03:00,
2013-10-18 09:08:00,66.9,63.9,30.02,NW,316,0.0,2.0,90,0.00,,,0.01,meteohub,2013-10-18 14:08:00,
2013-10-18 09:13:00,67.1,64.4,30.02,NW,316,0.0,2.0,91,0.00,,,0.01,meteohub,2013-10-18 14:13:00,
2013-10-18 09:18:00,67.3,64.2,30.02,WSW,258,0.0,2.0,90,0.00,,,0.01,meteohub,2013-10-18 14:18:00,
2013-10-18 09:23:00,67.3,64.2,30.02,NNW,337,0.0,4.0,90,0.00,,,0.01,meteohub,2013-10-18 14:23:00,
2013-10-18 09:28:00,67.3,64.2,30.01,NNW,337,1.0,4.0,90,0.00,,,0.01,meteohub,2013-10-18 14:28:00,
2013-10-18 09:33:00,67.5,64.4,30.02,WNW,291,0.0,4.0,90,0.00,,,0.01,meteohub,2013-10-18 14:33:00,
2013-10-18 09:39:00,67.6,64.0,30.01,East,100,1.0,2.0,88,0.00,,,0.01,meteohub,2013-10-18 14:39:00,
2013-10-18 09:44:00,68.0,64.4,30.01,NE,39,4.0,4.0,88,0.00,,,0.01,meteohub,2013-10-18 14:44:00,
2013-10-18 09:49:00,68.2,64.4,30.01,NE,44,1.0,4.0,88,0.00,,,0.01,meteohub,2013-10-18 14:49:00,
2013-10-18 09:54:00,68.4,64.6,30.01,West,276,0.0,4.0,88,0.00,,,0.01,meteohub,2013-10-18 14:54:00,
2013-10-18 09:59:00,68.7,64.9,30.01,ENE,73,0.0,4.0,88,0.00,,,0.01,meteohub,2013-10-18 14:59:00,
2013-10-18 10:04:00,69.1,65.1,30.01,East,99,0.0,3.0,87,0.00,,,0.01,meteohub,2013-10-18 15:04:00,
2013-10-18 10:09:00,69.3,64.9,30.02,SW,220,0.0,3.0,86,0.00,,,0.01,meteohub,2013-10-18 15:09:00,
2013-10-18 10:14:00,69.3,64.9,30.02,North,9,1.0,3.0,86,0.00,,,0.01,meteohub,2013-10-18 15:14:00,
2013-10-18 10:20:00,69.3,65.3,30.02,WNW,298,0.0,3.0,87,0.00,,,0.01,meteohub,2013-10-18 15:20:00,
2013-10-18 10:25:00,69.3,64.6,30.02,NNE,33,0.0,4.0,85,0.00,,,0.01,meteohub,2013-10-18 15:25:00,
2013-10-18 10:30:00,69.3,64.9,30.02,NNE,33,0.0,4.0,86,0.00,,,0.01,meteohub,2013-10-18 15:30:00,
2013-10-18 10:35:00,69.4,65.1,30.01,NE,35,0.0,3.0,86,0.00,,,0.01,meteohub,2013-10-18 15:35:00,
2013-10-18 10:40:00,70.0,65.7,30.01,ENE,66,0.0,4.0,86,0.00,,,0.01,meteohub,2013-10-18 15:40:00,
2013-10-18 10:45:00,70.5,65.8,30.01,ESE,109,0.0,4.0,85,0.00,,,0.01,meteohub,2013-10-18 15:45:00,
2013-10-18 10:50:00,70.9,65.8,30.02,NNE,29,0.0,4.0,84,0.00,,,0.01,meteohub,2013-10-18 15:50:00,
2013-10-18 10:55:00,70.9,65.5,30.02,North,349,0.0,3.0,83,0.00,,,0.01,meteohub,2013-10-18 15:55:00,
2013-10-18 11:00:00,70.7,65.3,30.02,NE,39,1.0,3.0,83,0.00,,,0.01,meteohub,2013-10-18 16:00:00,
2013-10-18 11:05:00,70.3,64.9,30.02,NE,38,1.0,4.0,83,0.00,,,0.01,meteohub,2013-10-18 16:05:00,
2013-10-18 11:11:00,70.2,65.5,30.02,NE,38,0.0,4.0,85,0.00,,,0.01,meteohub,2013-10-18 16:11:00,
2013-10-18 11:16:00,70.0,65.3,30.02,NNE,28,1.0,3.0,85,0.00,,,0.01,meteohub,2013-10-18 16:16:00,
2013-10-18 11:21:00,69.6,64.9,30.02,WNW,284,1.0,3.0,85,0.00,,,0.01,meteohub,2013-10-18 16:21:00,
2013-10-18 11:26:00,69.4,64.8,30.02,WNW,289,0.0,3.0,85,0.00,,,0.01,meteohub,2013-10-18 16:26:00,
2013-10-18 11:31:00,69.4,65.1,30.02,SW,233,0.0,3.0,86,0.00,,,0.01,meteohub,2013-10-18 16:31:00,
2013-10-18 11:36:00,69.3,64.9,30.02,West,264,0.0,2.0,86,0.00,,,0.01,meteohub,2013-10-18 16:36:00,
2013-10-18 11:41:00,68.9,64.9,30.01,WNW,287,2.0,5.0,87,0.00,,,0.01,meteohub,2013-10-18 16:41:00,
2013-10-18 11:46:00,68.7,64.8,30.01,WNW,287,0.0,5.0,87,0.00,,,0.01,meteohub,2013-10-18 16:46:00,
2013-10-18 11:51:00,68.7,64.8,30.01,NW,316,1.0,3.0,87,0.00,,,0.01,meteohub,2013-10-18 16:51:00,
2013-10-18 11:57:00,68.7,64.8,30.01,West,269,0.0,3.0,87,0.00,,,0.01,meteohub,2013-10-18 16:57:00,
2013-10-18 12:02:00,68.9,64.6,30.01,West,269,0.0,2.0,86,0.00,,,0.01,meteohub,2013-10-18 17:02:00,
2013-10-18 12:07:00,69.1,65.1,30.01,West,269,0.0,2.0,87,0.00,,,0.01,meteohub,2013-10-18 17:07:00,
2013-10-18 12:12:00,69.3,65.3,30.01,West,269,0.0,1.0,87,0.00,,,0.01,meteohub,2013-10-18 17:12:00,
2013-10-18 12:17:00,69.3,64.9,30.00,WSW,254,0.0,4.0,86,0.00,,,0.01,meteohub,2013-10-18 17:17:00,
2013-10-18 12:22:00,69.3,65.3,30.00,WSW,254,0.0,4.0,87,0.00,,,0.01,meteohub,2013-10-18 17:22:00,
2013-10-18 12:27:00,69.3,64.9,30.00,NNW,332,0.0,4.0,86,0.00,,,0.01,meteohub,2013-10-18 17:27:00,
2013-10-18 12:32:00,69.3,64.9,30.00,NE,37,1.0,3.0,86,0.00,,,0.01,meteohub,2013-10-18 17:32:00,
2013-10-18 12:35:00,69.4,65.1,30.00,NE,35,0.0,3.0,86,0.00,,,0.01,meteohub,2013-10-18 17:35:00,
2013-10-18 12:40:00,69.4,64.8,29.99,NE,35,1.0,3.0,85,0.00,,,0.01,meteohub,2013-10-18 17:40:00,
2013-10-18 12:45:00,69.4,65.1,29.99,NE,35,0.0,3.0,86,0.00,,,0.01,meteohub,2013-10-18 17:45:00,
2013-10-18 12:51:00,69.6,64.9,29.99,ESE,116,0.0,2.0,85,0.00,,,0.01,meteohub,2013-10-18 17:51:00,
2013-10-18 12:56:00,69.6,64.9,29.99,South,183,0.0,2.0,85,0.00,,,0.01,meteohub,2013-10-18 17:56:00,
2013-10-18 13:01:00,70.0,65.3,29.99,WSW,256,0.0,2.0,85,0.00,,,0.01,meteohub,2013-10-18 18:01:00,
2013-10-18 13:06:00,70.0,65.3,29.99,West,260,0.0,3.0,85,0.00,,,0.01,meteohub,2013-10-18 18:06:00,
2013-10-18 13:11:00,70.2,65.1,29.98,West,260,0.0,3.0,84,0.00,,,0.01,meteohub,2013-10-18 18:11:00,
2013-10-18 13:16:00,70.3,65.7,29.98,ENE,78,0.0,2.0,85,0.00,,,0.01,meteohub,2013-10-18 18:16:00,
2013-10-18 13:21:00,70.5,65.1,29.98,ENE,69,0.0,2.0,83,0.00,,,0.01,meteohub,2013-10-18 18:21:00,
2013-10-18 13:26:00,70.3,64.9,29.98,WSW,251,0.0,2.0,83,0.00,,,0.01,meteohub,2013-10-18 18:26:00,
2013-10-18 13:31:00,70.5,65.5,29.98,WSW,251,0.0,2.0,84,0.00,,,0.01,meteohub,2013-10-18 18:31:00,
2013-10-18 13:37:00,70.5,65.1,29.97,NNW,344,0.0,2.0,83,0.00,,,0.01,meteohub,2013-10-18 18:37:00,
2013-10-18 13:42:00,70.5,65.5,29.97,ENE,58,0.0,2.0,84,0.00,,,0.01,meteohub,2013-10-18 18:42:00,
2013-10-18 13:47:00,70.9,65.5,29.96,ENE,58,0.0,2.0,83,0.00,,,0.01,meteohub,2013-10-18 18:47:00,
2013-10-18 13:52:00,71.1,65.7,29.96,ENE,58,0.0,2.0,83,0.00,,,0.01,meteohub,2013-10-18 18:52:00,
2013-10-18 13:57:00,71.2,65.1,29.96,NE,54,0.0,2.0,81,0.00,,,0.01,meteohub,2013-10-18 18:57:00,
2013-10-18 14:02:00,71.2,65.5,29.96,NE,54,0.0,3.0,82,0.00,,,0.01,meteohub,2013-10-18 19:02:00,
2013-10-18 14:07:00,71.2,65.5,29.96,NE,55,1.0,3.0,82,0.00,,,0.01,meteohub,2013-10-18 19:07:00,
2013-10-18 14:12:00,71.4,65.7,29.96,NE,55,0.0,3.0,82,0.00,,,0.01,meteohub,2013-10-18 19:12:00,
2013-10-18 14:17:00,71.2,65.8,29.96,WNW,288,0.0,3.0,83,0.00,,,0.01,meteohub,2013-10-18 19:17:00,
2013-10-18 14:22:00,71.2,65.5,29.96,NW,314,0.0,2.0,82,0.00,,,0.01,meteohub,2013-10-18 19:22:00,
2013-10-18 14:27:00,71.2,65.5,29.96,NE,36,0.0,2.0,82,0.00,,,0.01,meteohub,2013-10-18 19:27:00,
2013-10-18 14:32:00,71.2,65.8,29.96,West,260,0.0,2.0,83,0.00,,,0.01,meteohub,2013-10-18 19:32:00,
2013-10-18 14:37:00,71.6,65.8,29.96,NNE,22,1.0,2.0,82,0.00,,,0.01,meteohub,2013-10-18 19:37:00,
2013-10-18 14:42:00,72.0,65.8,29.96,NNE,22,0.0,2.0,81,0.00,,,0.01,meteohub,2013-10-18 19:42:00,
2013-10-18 14:47:00,72.1,66.0,29.96,NNE,22,0.0,2.0,81,0.00,,,0.01,meteohub,2013-10-18 19:47:00,
2013-10-18 14:52:00,72.5,65.7,29.96,ESE,107,2.0,2.0,79,0.00,,,0.01,meteohub,2013-10-18 19:52:00,
2013-10-18 14:57:00,73.0,65.8,29.96,West,266,0.0,2.0,78,0.01,,,0.02,meteohub,2013-10-18 19:57:00,
2013-10-18 15:02:00,73.2,65.7,29.96,West,262,0.0,3.0,77,0.01,,,0.02,meteohub,2013-10-18 20:02:00,
2013-10-18 15:07:00,73.2,66.4,29.95,NNW,329,2.0,3.0,79,0.01,,,0.02,meteohub,2013-10-18 20:07:00,
2013-10-18 15:12:00,73.0,65.5,29.95,NNW,328,0.0,3.0,77,0.01,,,0.02,meteohub,2013-10-18 20:12:00,
2013-10-18 15:17:00,73.2,65.1,29.95,North,350,2.0,3.0,76,0.01,,,0.02,meteohub,2013-10-18 20:17:00,
2013-10-18 15:23:00,73.6,65.5,29.94,East,83,0.0,3.0,76,0.01,,,0.02,meteohub,2013-10-18 20:23:00,
2013-10-18 15:28:00,73.6,65.5,29.94,East,95,0.0,3.0,76,0.01,,,0.02,meteohub,2013-10-18 20:28:00,
2013-10-18 15:33:00,73.9,65.5,29.94,East,87,2.0,5.0,75,0.01,,,0.02,meteohub,2013-10-18 20:33:00,
2013-10-18 15:38:00,73.8,65.7,29.94,East,92,3.0,5.0,76,0.01,,,0.02,meteohub,2013-10-18 20:38:00,
2013-10-18 15:43:00,73.2,65.1,29.94,East,81,1.0,6.0,76,0.01,,,0.02,meteohub,2013-10-18 20:43:00,
2013-10-18 15:48:00,73.0,65.8,29.94,ENE,71,0.0,6.0,78,0.01,,,0.02,meteohub,2013-10-18 20:48:00,
2013-10-18 15:53:00,72.9,65.7,29.95,ENE,71,0.0,6.0,78,0.00,,,0.02,meteohub,2013-10-18 20:53:00,
2013-10-18 15:58:00,73.0,65.5,29.95,ENE,71,0.0,4.0,77,0.00,,,0.02,meteohub,2013-10-18 20:58:00,
2013-10-18 16:04:00,73.2,65.1,29.95,East,81,0.0,2.0,76,0.00,,,0.02,meteohub,2013-10-18 21:04:00,
2013-10-18 16:09:00,73.8,66.0,29.94,East,81,1.0,2.0,77,0.00,,,0.02,meteohub,2013-10-18 21:09:00,
2013-10-18 16:14:00,73.9,65.5,29.94,SW,218,1.0,2.0,75,0.00,,,0.02,meteohub,2013-10-18 21:14:00,
2013-10-18 16:19:00,73.8,65.3,29.94,SW,218,0.0,2.0,75,0.00,,,0.02,meteohub,2013-10-18 21:19:00,
2013-10-18 16:24:00,73.8,65.3,29.94,SW,218,0.0,2.0,75,0.00,,,0.02,meteohub,2013-10-18 21:24:00,
2013-10-18 16:29:00,73.8,65.7,29.94,SW,218,0.0,2.0,76,0.00,,,0.02,meteohub,2013-10-18 21:29:00,
2013-10-18 16:34:00,73.9,65.8,29.94,SW,218,0.0,1.0,76,0.00,,,0.02,meteohub,2013-10-18 21:34:00,
2013-10-18 16:39:00,73.9,65.5,29.95,SSE,152,0.0,1.0,75,0.00,,,0.02,meteohub,2013-10-18 21:39:00,
2013-10-18 16:44:00,73.9,65.5,29.94,ESE,102,1.0,1.0,75,0.00,,,0.02,meteohub,2013-10-18 21:44:00,
2013-10-18 16:50:00,73.8,66.0,29.94,ESE,102,0.0,2.0,77,0.00,,,0.02,meteohub,2013-10-18 21:50:00,
2013-10-18 16:55:00,73.6,66.4,29.94,ESE,102,0.0,2.0,78,0.00,,,0.02,meteohub,2013-10-18 21:55:00,
2013-10-18 17:00:00,73.6,66.4,29.94,ESE,102,0.0,2.0,78,0.00,,,0.02,meteohub,2013-10-18 22:00:00,
2013-10-18 17:05:00,73.8,65.7,29.94,ESE,103,0.0,1.0,76,0.00,,,0.02,meteohub,2013-10-18 22:05:00,
2013-10-18 17:10:00,73.8,65.3,29.94,ESE,104,0.0,1.0,75,0.00,,,0.02,meteohub,2013-10-18 22:10:00,
2013-10-18 17:15:00,73.4,65.3,29.94,ESE,104,0.0,2.0,76,0.00,,,0.02,meteohub,2013-10-18 22:15:00,
2013-10-18 17:20:00,73.0,65.8,29.94,ESE,105,0.0,2.0,78,0.00,,,0.02,meteohub,2013-10-18 22:20:00,
2013-10-18 17:25:00,72.9,66.0,29.94,ESE,116,2.0,2.0,79,0.00,,,0.02,meteohub,2013-10-18 22:25:00,
2013-10-18 17:31:00,72.5,66.0,29.94,ESE,116,0.0,2.0,80,0.00,,,0.02,meteohub,2013-10-18 22:31:00,
2013-10-18 17:36:00,72.1,66.0,29.94,ESE,116,0.0,2.0,81,0.00,,,0.02,meteohub,2013-10-18 22:36:00,
2013-10-18 17:41:00,72.0,66.6,29.94,ESE,116,0.0,2.0,83,0.00,,,0.02,meteohub,2013-10-18 22:41:00,
2013-10-18 17:46:00,71.6,66.2,29.94,ESE,116,0.0,0.0,83,0.00,,,0.02,meteohub,2013-10-18 22:46:00,
2013-10-18 17:51:00,71.4,66.0,29.94,ESE,116,0.0,0.0,83,0.00,,,0.02,meteohub,2013-10-18 22:51:00,
2013-10-18 17:56:00,71.1,66.0,29.94,ESE,116,0.0,1.0,84,0.00,,,0.02,meteohub,2013-10-18 22:56:00,
2013-10-18 18:01:00,70.7,65.7,29.94,ESE,116,0.0,1.0,84,0.00,,,0.02,meteohub,2013-10-18 23:01:00,
2013-10-18 18:06:00,70.5,65.8,29.94,ESE,116,0.0,1.0,85,0.00,,,0.02,meteohub,2013-10-18 23:06:00,
2013-10-18 18:11:00,70.2,65.8,29.94,ESE,116,0.0,0.0,86,0.00,,,0.02,meteohub,2013-10-18 23:11:00,
2013-10-18 18:17:00,70.0,65.7,29.94,ESE,116,0.0,0.0,86,0.00,,,0.02,meteohub,2013-10-18 23:17:00,
2013-10-18 18:22:00,69.4,65.5,29.94,ESE,116,0.0,0.0,87,0.00,,,0.02,meteohub,2013-10-18 23:22:00,
2013-10-18 18:27:00,69.3,65.3,29.94,ESE,116,0.0,0.0,87,0.00,,,0.02,meteohub,2013-10-18 23:27:00,
2013-10-18 18:32:00,69.1,65.3,29.94,ESE,116,0.0,0.0,88,0.00,,,0.02,meteohub,2013-10-18 23:32:00,
2013-10-18 18:37:00,68.9,65.5,29.93,ESE,116,0.0,0.0,89,0.00,,,0.02,meteohub,2013-10-18 23:37:00,
2013-10-18 18:42:00,68.7,65.3,29.93,ESE,116,0.0,1.0,89,0.00,,,0.02,meteohub,2013-10-18 23:42:00,
2013-10-18 18:47:00,68.4,64.9,29.94,ESE,116,0.0,1.0,89,0.00,,,0.02,meteohub,2013-10-18 23:47:00,
2013-10-18 18:52:00,68.2,65.1,29.94,ESE,116,0.0,1.0,90,0.00,,,0.02,meteohub,2013-10-18 23:52:00,
2013-10-18 18:57:00,68.0,64.9,29.94,ESE,116,0.0,0.0,90,0.00,,,0.02,meteohub,2013-10-18 23:57:00,
2013-10-18 19:02:00,67.8,64.8,29.94,ESE,116,0.0,0.0,90,0.00,,,0.02,meteohub,2013-10-19 00:02:00,
2013-10-18 19:07:00,67.6,64.6,29.94,ESE,116,0.0,0.0,90,0.00,,,0.00,meteohub,2013-10-19 00:07:00,
2013-10-18 19:12:00,67.6,64.9,29.94,ESE,116,0.0,0.0,91,0.00,,,0.00,meteohub,2013-10-19 00:12:00,
2013-10-18 19:17:00,67.6,64.9,29.94,ESE,116,0.0,0.0,91,0.00,,,0.00,meteohub,2013-10-19 00:17:00,
2013-10-18 19:22:00,67.5,64.8,29.94,ESE,116,0.0,0.0,91,0.00,,,0.00,meteohub,2013-10-19 00:22:00,
2013-10-18 19:27:00,67.5,64.8,29.94,ESE,116,0.0,0.0,91,0.00,,,0.00,meteohub,2013-10-19 00:27:00,
2013-10-18 19:32:00,67.5,64.8,29.94,ESE,116,0.0,0.0,91,0.00,,,0.00,meteohub,2013-10-19 00:32:00,
2013-10-18 19:37:00,67.5,64.8,29.94,ESE,116,0.0,0.0,91,0.00,,,0.00,meteohub,2013-10-19 00:37:00,
2013-10-18 19:42:00,67.5,64.8,29.95,ESE,116,0.0,0.0,91,0.00,,,0.00,meteohub,2013-10-19 00:42:00,
2013-10-18 19:47:00,67.3,64.9,29.95,ESE,116,0.0,0.0,92,0.00,,,0.00,meteohub,2013-10-19 00:47:00,
2013-10-18 19:52:00,67.3,64.9,29.95,ESE,116,0.0,0.0,92,0.00,,,0.00,meteohub,2013-10-19 00:52:00,
2013-10-18 19:57:00,66.9,64.6,29.96,ESE,116,0.0,0.0,92,0.00,,,0.00,meteohub,2013-10-19 00:57:00,
2013-10-18 20:02:00,66.9,64.6,29.96,ESE,116,1.0,0.0,92,0.00,,,0.00,meteohub,2013-10-19 01:02:00,
2013-10-18 20:07:00,66.7,64.6,29.96,ESE,116,0.0,1.0,93,0.00,,,0.00,meteohub,2013-10-19 01:07:00,
2013-10-18 20:12:00,66.7,64.6,29.96,ESE,116,0.0,1.0,93,0.00,,,0.00,meteohub,2013-10-19 01:12:00,
2013-10-18 20:17:00,66.6,64.4,29.96,ESE,116,0.0,1.0,93,0.00,,,0.00,meteohub,2013-10-19 01:17:00,
2013-10-18 20:22:00,66.6,64.4,29.96,ESE,116,0.0,1.0,93,0.00,,,0.00,meteohub,2013-10-19 01:22:00,
2013-10-18 20:27:00,66.4,64.2,29.96,ESE,116,0.0,0.0,93,0.00,,,0.00,meteohub,2013-10-19 01:27:00,
2013-10-18 20:32:00,66.4,64.2,29.96,ESE,116,0.0,0.0,93,0.00,,,0.00,meteohub,2013-10-19 01:32:00,
2013-10-18 20:37:00,66.4,64.2,29.96,ESE,116,0.0,0.0,93,0.00,,,0.00,meteohub,2013-10-19 01:37:00,
2013-10-18 20:42:00,66.4,64.2,29.97,ESE,116,0.0,0.0,93,0.00,,,0.00,meteohub,2013-10-19 01:42:00,
2013-10-18 20:47:00,66.4,64.2,29.97,ESE,116,0.0,0.0,93,0.00,,,0.00,meteohub,2013-10-19 01:47:00,
2013-10-18 20:52:00,66.4,64.2,29.97,ESE,116,0.0,0.0,93,0.00,,,0.00,meteohub,2013-10-19 01:52:00,
2013-10-18 20:57:00,66.2,64.0,29.97,ESE,116,0.0,0.0,93,0.00,,,0.00,meteohub,2013-10-19 01:57:00,
2013-10-18 21:02:00,66.2,64.4,29.97,ESE,116,0.0,0.0,94,0.00,,,0.00,meteohub,2013-10-19 02:02:00,
2013-10-18 21:07:00,66.4,64.6,29.97,ESE,116,0.0,1.0,94,0.00,,,0.00,meteohub,2013-10-19 02:07:00,
2013-10-18 21:12:00,66.4,64.2,29.97,ESE,116,0.0,1.0,93,0.00,,,0.00,meteohub,2013-10-19 02:12:00,
2013-10-18 21:17:00,66.4,64.2,29.97,ESE,116,0.0,1.0,93,0.00,,,0.00,meteohub,2013-10-19 02:17:00,
2013-10-18 21:22:00,66.4,64.6,29.97,ESE,116,0.0,0.0,94,0.00,,,0.00,meteohub,2013-10-19 02:22:00,
2013-10-18 21:27:00,66.4,64.6,29.97,ESE,116,0.0,0.0,94,0.00,,,0.00,meteohub,2013-10-19 02:27:00,
2013-10-18 21:33:00,66.4,64.6,29.97,ESE,116,0.0,0.0,94,0.00,,,0.00,meteohub,2013-10-19 02:33:00,
2013-10-18 21:38:00,66.2,64.4,29.97,ESE,116,0.0,0.0,94,0.00,,,0.00,meteohub,2013-10-19 02:38:00,
2013-10-18 21:43:00,66.0,64.2,29.97,ESE,116,0.0,0.0,94,0.00,,,0.00,meteohub,2013-10-19 02:43:00,
2013-10-18 21:48:00,66.0,64.2,29.97,ESE,116,0.0,0.0,94,0.00,,,0.00,meteohub,2013-10-19 02:48:00,
2013-10-18 21:53:00,66.0,64.2,29.98,ESE,116,0.0,0.0,94,0.00,,,0.00,meteohub,2013-10-19 02:53:00,
2013-10-18 21:58:00,65.8,64.0,29.97,ESE,116,0.0,1.0,94,0.00,,,0.00,meteohub,2013-10-19 02:58:00,
2013-10-18 22:03:00,65.8,64.0,29.97,ESE,116,0.0,1.0,94,0.00,,,0.00,meteohub,2013-10-19 03:03:00,
2013-10-18 22:08:00,65.8,64.0,29.97,ESE,116,0.0,1.0,94,0.00,,,0.00,meteohub,2013-10-19 03:08:00,
2013-10-18 22:14:00,65.7,63.9,29.98,ESE,116,0.0,0.0,94,0.00,,,0.00,meteohub,2013-10-19 03:14:00,
2013-10-18 22:19:00,65.7,63.9,29.98,ESE,116,0.0,0.0,94,0.00,,,0.00,meteohub,2013-10-19 03:19:00,
2013-10-18 22:24:00,65.7,63.9,29.98,ESE,116,0.0,0.0,94,0.00,,,0.00,meteohub,2013-10-19 03:24:00,
2013-10-18 22:29:00,65.7,63.9,29.98,ESE,116,0.0,0.0,94,0.00,,,0.00,meteohub,2013-10-19 03:29:00,
2013-10-18 22:34:00,65.7,64.2,29.98,ESE,116,0.0,0.0,95,0.00,,,0.00,meteohub,2013-10-19 03:34:00,
2013-10-18 22:39:00,65.7,64.2,29.98,ESE,116,0.0,0.0,95,0.00,,,0.00,meteohub,2013-10-19 03:39:00,
2013-10-18 22:44:00,65.7,64.2,29.97,ESE,116,0.0,0.0,95,0.00,,,0.00,meteohub,2013-10-19 03:44:00,
2013-10-18 22:50:00,65.7,64.2,29.97,ESE,116,0.0,0.0,95,0.00,,,0.00,meteohub,2013-10-19 03:50:00,
2013-10-18 22:55:00,65.7,64.2,29.97,ESE,116,0.0,0.0,95,0.00,,,0.00,meteohub,2013-10-19 03:55:00,
2013-10-18 23:00:00,65.7,64.2,29.98,ESE,116,0.0,0.0,95,0.00,,,0.00,meteohub,2013-10-19 04:00:00,
2013-10-18 23:01:00,65.7,64.2,29.98,ESE,116,0.0,0.0,95,0.00,,,0.00,meteohub,2013-10-19 04:01:00,
2013-10-18 23:02:00,65.7,64.2,29.98,ESE,116,0.0,0.0,95,0.00,,,0.00,meteohub,2013-10-19 04:02:00,
2013-10-18 23:03:00,65.7,64.2,29.98,ESE,116,0.0,0.0,95,0.00,,,0.00,meteohub,2013-10-19 04:03:00,
2013-10-18 23:04:00,65.7,64.2,29.98,ESE,116,0.0,0.0,95,0.00,,,0.00,meteohub,2013-10-19 04:04:00,
2013-10-18 23:05:00,65.7,64.2,29.98,ESE,116,0.0,0.0,95,0.00,,,0.00,meteohub,2013-10-19 04:05:00,
2013-10-18 23:06:00,65.7,64.2,29.98,ESE,116,0.0,0.0,95,0.00,,,0.00,meteohub,2013-10-19 04:06:00,
2013-10-18 23:11:00,65.7,64.2,29.98,ESE,116,0.0,1.0,95,0.00,,,0.00,meteohub,2013-10-19 04:11:00,
2013-10-18 23:16:00,65.7,64.2,29.97,ESE,116,0.0,1.0,95,0.00,,,0.00,meteohub,2013-10-19 04:16:00,
2013-10-18 23:21:00,65.7,64.2,29.98,ESE,116,0.0,1.0,95,0.00,,,0.00,meteohub,2013-10-19 04:21:00,
2013-10-18 23:26:00,65.7,64.2,29.98,ESE,116,0.0,0.0,95,0.00,,,0.00,meteohub,2013-10-19 04:26:00,
2013-10-18 23:31:00,65.7,64.2,29.98,ESE,116,0.0,0.0,95,0.00,,,0.00,meteohub,2013-10-19 04:31:00,
2013-10-18 23:37:00,65.5,64.0,29.98,ESE,116,0.0,0.0,95,0.00,,,0.00,meteohub,2013-10-19 04:37:00,
2013-10-18 23:42:00,65.5,64.0,29.98,ESE,116,0.0,1.0,95,0.00,,,0.00,meteohub,2013-10-19 04:42:00,
2013-10-18 23:47:00,65.5,64.0,29.98,WNW,285,1.0,1.0,95,0.00,,,0.00,meteohub,2013-10-19 04:47:00,
2013-10-18 23:52:00,65.1,63.7,29.97,WNW,285,0.0,2.0,95,0.00,,,0.00,meteohub,2013-10-19 04:52:00,
2013-10-18 23:57:00,64.9,63.1,29.97,WNW,285,0.0,2.0,94,0.00,,,0.00,meteohub,2013-10-19 04:57:00,